TimeCDT,TemperatureF,Dew PointF,Humidity,Sea Level PressureIn,VisibilityMPH,Wind Direction,Wind SpeedMPH,Gust SpeedMPH,PrecipitationIn,Events,Conditions,WindDirDegrees,DateUTC
1:52 AM,46.0,43.0,89,29.89,10.0,North,5.8,-,0.02,,Overcast,350,2011-10-16 06:52:00
2:52 AM,45.0,43.0,93,29.86,10.0,North,4.6,-,0.01,,Mostly Cloudy,350,2011-10-16 07:52:00
3:52 AM,44.1,41.0,89,29.86,10.0,North,6.9,-,N/A,,Clear,350,2011-10-16 08:52:00
4:52 AM,43.0,39.9,89,29.89,10.0,NW,6.9,-,N/A,,Clear,320,2011-10-16 09:52:00
6:52 AM,41.0,37.9,89,29.95,10.0,WNW,6.9,-,N/A,,Clear,300,2011-10-16 11:52:00
7:52 AM,41.0,37.9,89,29.96,10.0,WNW,6.9,-,N/A,,Clear,290,2011-10-16 12:52:00
8:52 AM,44.1,39.0,82,29.97,10.0,WNW,9.2,-,N/A,,Clear,300,2011-10-16 13:52:00
9:52 AM,48.0,39.9,74,29.98,10.0,NW,10.4,18.4,N/A,,Clear,310,2011-10-16 14:52:00
10:52 AM,52.0,39.0,61,29.99,10.0,WNW,13.8,21.9,N/A,,Clear,300,2011-10-16 15:52:00
11:52 AM,55.0,37.9,53,29.99,10.0,NNW,16.1,26.5,N/A,,Clear,330,2011-10-16 16:52:00
12:52 PM,55.9,35.1,45,29.99,10.0,NW,12.7,25.3,N/A,,Clear,320,2011-10-16 17:52:00
1:52 PM,55.9,32.0,40,29.98,10.0,NW,18.4,26.5,N/A,,Scattered Clouds,310,2011-10-16 18:52:00
2:52 PM,57.9,28.9,33,29.96,10.0,WNW,19.6,29.9,N/A,,Clear,290,2011-10-16 19:52:00
4:52 PM,57.0,26.1,30,29.97,10.0,WNW,15.0,27.6,N/A,,Clear,300,2011-10-16 21:52:00
5:52 PM,55.0,26.1,33,29.96,10.0,WNW,16.1,24.2,N/A,,Clear,290,2011-10-16 22:52:00
6:52 PM,50.0,28.0,43,29.96,10.0,West,9.2,-,N/A,,Clear,280,2011-10-16 23:52:00
7:52 PM,48.0,28.9,48,29.98,10.0,West,9.2,-,N/A,,Clear,280,2011-10-17 00:52:00
8:52 PM,46.0,28.9,51,29.98,10.0,West,9.2,-,N/A,,Clear,280,2011-10-17 01:52:00
9:52 PM,42.1,30.0,62,30.00,10.0,WNW,8.1,-,N/A,,Clear,290,2011-10-17 02:52:00
10:52 PM,39.0,28.9,67,30.01,10.0,WNW,8.1,-,N/A,,Clear,290,2011-10-17 03:52:00
11:52 PM,39.0,30.0,70,30.00,10.0,West,8.1,-,N/A,,Clear,280,2011-10-17 04:52:00